Time,TemperatureF,DewpointF,PressureIn,WindDirection,WindDirectionDegrees,WindSpeedMPH,WindSpeedGustMPH,Humidity,HourlyPrecipIn,Conditions,Clouds,dailyrainin,SolarRadiationWatts/m^2,SoftwareType,DateUTC
2013-04-02 00:03:00,54.0,45.0,-100.00,WSW,252,2.0,5.0,72,0.00,,,0.03,0.000000,,2013-04-02 04:03:00,
2013-04-02 00:13:00,54.0,45.0,-100.00,WSW,252,2.0,5.0,72,0.00,,,0.03,0.000000,,2013-04-02 04:13:00,
2013-04-02 00:23:00,54.0,45.0,-100.00,WSW,252,2.0,5.0,72,0.00,,,0.03,0.000000,,2013-04-02 04:23:00,
2013-04-02 00:53:00,54.0,45.0,-100.00,WNW,289,2.0,6.0,72,0.00,,,0.02,0.000000,,2013-04-02 04:53:00,
2013-04-02 01:02:00,54.0,45.0,-100.00,WNW,289,2.0,6.0,72,0.00,,,0.02,0.000000,,2013-04-02 05:02:00,
2013-04-02 01:12:00,54.0,45.0,-100.00,WNW,289,2.0,6.0,72,0.00,,,0.02,0.000000,,2013-04-02 05:12:00,
2013-04-02 01:22:00,54.0,45.0,-100.00,WNW,289,2.0,6.0,72,0.00,,,0.02,0.000000,,2013-04-02 05:22:00,
2013-04-02 01:52:00,53.0,44.0,-100.00,WSW,258,3.0,5.0,72,0.00,,,0.02,0.000000,,2013-04-02 05:52:00,
2013-04-02 02:02:00,53.0,44.0,-100.00,WSW,258,3.0,5.0,72,0.00,,,0.02,0.000000,,2013-04-02 06:02:00,
2013-04-02 02:12:00,53.0,44.0,-100.00,WSW,258,3.0,5.0,72,0.00,,,0.02,0.000000,,2013-04-02 06:12:00,
2013-04-02 02:22:00,53.0,44.0,-100.00,WSW,258,3.0,5.0,72,0.00,,,0.02,0.000000,,2013-04-02 06:22:00,
2013-04-02 02:52:00,53.0,41.0,-100.00,NE,35,6.0,16.0,63,0.00,,,0.02,0.000000,,2013-04-02 06:52:00,
2013-04-02 03:02:00,53.0,41.0,-100.00,NE,35,6.0,16.0,63,0.00,,,0.02,0.000000,,2013-04-02 07:02:00,
2013-04-02 03:13:00,53.0,41.0,-100.00,NE,35,6.0,16.0,63,0.00,,,0.02,0.000000,,2013-04-02 07:13:00,
2013-04-02 03:22:00,53.0,41.0,-100.00,NE,35,6.0,16.0,63,0.00,,,0.02,0.000000,,2013-04-02 07:22:00,
2013-04-02 03:53:00,52.0,38.0,-100.00,NNE,31,6.0,16.0,59,0.00,,,0.02,0.000000,,2013-04-02 07:53:00,
2013-04-02 04:02:00,52.0,38.0,-100.00,NNE,31,6.0,16.0,59,0.00,,,0.02,0.000000,,2013-04-02 08:02:00,
2013-04-02 04:13:00,52.0,38.0,-100.00,NNE,31,6.0,16.0,59,0.00,,,0.02,0.000000,,2013-04-02 08:13:00,
2013-04-02 04:22:00,52.0,38.0,-100.00,NNE,31,6.0,16.0,59,0.00,,,0.02,0.000000,,2013-04-02 08:22:00,
2013-04-02 04:52:00,51.0,37.0,-100.00,NNE,30,7.0,18.0,58,0.00,,,0.02,0.000000,,2013-04-02 08:52:00,
2013-04-02 05:02:00,51.0,37.0,-100.00,NNE,30,7.0,18.0,58,0.00,,,0.02,0.000000,,2013-04-02 09:02:00,
2013-04-02 05:13:00,51.0,37.0,-100.00,NNE,30,7.0,18.0,58,0.00,,,0.02,0.000000,,2013-04-02 09:13:00,
2013-04-02 05:22:00,51.0,37.0,-100.00,NNE,30,7.0,18.0,58,0.00,,,0.02,0.000000,,2013-04-02 09:22:00,
2013-04-02 05:53:00,49.0,35.0,-100.00,NNE,26,6.0,17.0,59,0.00,,,0.02,0.000000,,2013-04-02 09:53:00,
2013-04-02 06:03:00,49.0,35.0,-100.00,NNE,26,6.0,17.0,59,0.00,,,0.02,0.000000,,2013-04-02 10:03:00,
2013-04-02 06:13:00,49.0,35.0,-100.00,NNE,26,6.0,17.0,59,0.00,,,0.02,0.000000,,2013-04-02 10:13:00,
2013-04-02 06:24:00,49.0,35.0,-100.00,NNE,26,6.0,17.0,59,0.00,,,0.02,0.000000,,2013-04-02 10:24:00,
2013-04-02 06:53:00,49.0,34.0,-100.00,NE,34,5.0,15.0,57,0.00,,,0.02,0.000000,,2013-04-02 10:53:00,
2013-04-02 07:03:00,49.0,34.0,-100.00,NE,34,5.0,15.0,57,0.00,,,0.02,0.000000,,2013-04-02 11:03:00,
2013-04-02 07:12:00,49.0,34.0,-100.00,NE,34,5.0,15.0,57,0.00,,,0.02,0.000000,,2013-04-02 11:12:00,
2013-04-02 07:23:00,49.0,34.0,-100.00,NE,34,5.0,15.0,57,0.00,,,0.02,0.000000,,2013-04-02 11:23:00,
2013-04-02 07:53:00,49.0,34.0,-100.00,NNE,29,5.0,14.0,55,0.00,,,0.02,11.000000,,2013-04-02 11:53:00,
2013-04-02 08:02:00,49.0,34.0,-100.00,NNE,29,5.0,14.0,55,0.00,,,0.02,11.000000,,2013-04-02 12:02:00,
2013-04-02 08:12:00,49.0,34.0,-100.00,NNE,29,5.0,14.0,55,0.00,,,0.02,11.000000,,2013-04-02 12:12:00,
2013-04-02 08:23:00,49.0,34.0,-100.00,NNE,29,5.0,14.0,55,0.00,,,0.02,11.000000,,2013-04-02 12:23:00,
2013-04-02 08:53:00,50.0,34.0,-100.00,NNE,20,6.0,14.0,53,0.00,,,0.02,93.000000,,2013-04-02 12:53:00,
2013-04-02 09:02:00,50.0,34.0,-100.00,NNE,20,6.0,14.0,53,0.00,,,0.02,93.000000,,2013-04-02 13:02:00,
2013-04-02 09:12:00,50.0,34.0,-100.00,NNE,20,6.0,14.0,53,0.00,,,0.02,93.000000,,2013-04-02 13:12:00,
2013-04-02 09:22:00,50.0,34.0,-100.00,NNE,20,6.0,14.0,53,0.00,,,0.02,93.000000,,2013-04-02 13:22:00,
2013-04-02 09:52:00,51.0,34.0,-100.00,NNE,31,6.0,13.0,53,0.00,,,0.02,66.000000,,2013-04-02 13:52:00,
2013-04-02 10:02:00,51.0,34.0,-100.00,NNE,31,6.0,13.0,53,0.00,,,0.02,66.000000,,2013-04-02 14:02:00,
2013-04-02 10:13:00,51.0,34.0,-100.00,NNE,31,6.0,13.0,53,0.00,,,0.02,66.000000,,2013-04-02 14:13:00,
2013-04-02 10:23:00,51.0,34.0,-100.00,NNE,31,6.0,13.0,53,0.00,,,0.02,66.000000,,2013-04-02 14:23:00,
2013-04-02 10:52:00,54.0,36.0,-100.00,NE,34,5.0,11.0,51,0.00,,,0.02,532.000000,,2013-04-02 14:52:00,
2013-04-02 11:02:00,54.0,36.0,-100.00,NE,34,5.0,11.0,51,0.00,,,0.02,532.000000,,2013-04-02 15:02:00,
2013-04-02 11:12:00,54.0,36.0,-100.00,NE,34,5.0,11.0,51,0.00,,,0.02,532.000000,,2013-04-02 15:12:00,
2013-04-02 11:23:00,54.0,36.0,-100.00,NE,34,5.0,11.0,51,0.00,,,0.02,532.000000,,2013-04-02 15:23:00,
2013-04-02 11:58:00,54.0,35.0,-100.00,NE,55,6.0,12.0,49,0.00,,,0.02,755.000000,,2013-04-02 15:58:00,
2013-04-02 12:04:00,54.0,35.0,-100.00,NE,55,6.0,12.0,49,0.00,,,0.02,755.000000,,2013-04-02 16:04:00,
2013-04-02 12:14:00,54.0,35.0,-100.00,NE,55,6.0,12.0,49,0.00,,,0.02,755.000000,,2013-04-02 16:14:00,
2013-04-02 12:24:00,54.0,35.0,-100.00,NE,55,6.0,12.0,49,0.00,,,0.02,755.000000,,2013-04-02 16:24:00,
2013-04-02 12:25:00,55.0,36.0,-100.00,NE,53,5.0,12.0,49,0.00,,,-99.99,867.000000,,2013-04-02 16:25:00,
2013-04-02 12:54:00,55.0,36.0,-100.00,NE,53,5.0,12.0,49,0.00,,,-99.99,867.000000,,2013-04-02 16:54:00,
2013-04-02 13:06:00,55.0,36.0,-100.00,NE,53,5.0,12.0,49,0.00,,,-99.99,867.000000,,2013-04-02 17:06:00,
2013-04-02 13:13:00,55.0,36.0,-100.00,NE,53,5.0,12.0,49,0.00,,,-99.99,867.000000,,2013-04-02 17:13:00,
2013-04-02 13:57:00,54.0,36.0,-100.00,ENE,65,5.0,9.0,51,0.00,,,0.01,916.000000,,2013-04-02 17:57:00,
2013-04-02 14:05:00,54.0,36.0,-100.00,ENE,65,5.0,9.0,51,0.00,,,0.01,916.000000,,2013-04-02 18:05:00,
2013-04-02 14:13:00,54.0,36.0,-100.00,ENE,65,5.0,9.0,51,0.00,,,0.01,916.000000,,2013-04-02 18:13:00,
2013-04-02 14:23:00,54.0,36.0,-100.00,ENE,65,5.0,9.0,51,0.00,,,0.01,916.000000,,2013-04-02 18:23:00,
2013-04-02 14:57:00,55.0,37.0,-100.00,East,91,6.0,9.0,50,0.00,,,0.00,899.000000,,2013-04-02 18:57:00,
2013-04-02 15:03:00,55.0,37.0,-100.00,East,91,6.0,9.0,50,0.00,,,0.00,899.000000,,2013-04-02 19:03:00,
2013-04-02 15:13:00,55.0,37.0,-100.00,East,91,6.0,9.0,50,0.00,,,0.00,899.000000,,2013-04-02 19:13:00,
2013-04-02 15:23:00,55.0,37.0,-100.00,East,91,6.0,9.0,50,0.00,,,0.00,899.000000,,2013-04-02 19:23:00,
2013-04-02 15:57:00,55.0,37.0,-100.00,East,86,7.0,11.0,51,0.00,,,0.00,822.000000,,2013-04-02 19:57:00,
2013-04-02 16:04:00,55.0,37.0,-100.00,East,86,7.0,11.0,51,0.00,,,0.00,822.000000,,2013-04-02 20:04:00,
2013-04-02 16:14:00,55.0,37.0,-100.00,East,86,7.0,11.0,51,0.00,,,0.00,822.000000,,2013-04-02 20:14:00,
2013-04-02 16:22:00,55.0,37.0,-100.00,East,86,7.0,11.0,51,0.00,,,0.00,822.000000,,2013-04-02 20:22:00,
2013-04-02 16:55:00,56.0,37.0,-100.00,East,101,5.0,11.0,48,0.00,,,0.00,685.000000,,2013-04-02 20:55:00,
2013-04-02 17:05:00,56.0,37.0,-100.00,East,101,5.0,11.0,48,0.00,,,0.00,685.000000,,2013-04-02 21:05:00,
2013-04-02 17:13:00,56.0,37.0,-100.00,East,101,5.0,11.0,48,0.00,,,0.00,685.000000,,2013-04-02 21:13:00,
2013-04-02 17:23:00,56.0,37.0,-100.00,East,101,5.0,11.0,48,0.00,,,0.00,685.000000,,2013-04-02 21:23:00,
2013-04-02 17:56:00,55.0,37.0,-100.00,ESE,123,5.0,10.0,50,0.00,,,0.00,473.000000,,2013-04-02 21:56:00,
2013-04-02 18:04:00,55.0,37.0,-100.00,ESE,123,5.0,10.0,50,0.00,,,0.00,473.000000,,2013-04-02 22:04:00,
2013-04-02 18:14:00,55.0,37.0,-100.00,ESE,123,5.0,10.0,50,0.00,,,0.00,473.000000,,2013-04-02 22:14:00,
2013-04-02 18:24:00,55.0,37.0,-100.00,ESE,123,5.0,10.0,50,0.00,,,0.00,473.000000,,2013-04-02 22:24:00,
2013-04-02 18:54:00,54.0,36.0,-100.00,SSE,149,3.0,10.0,51,0.00,,,0.00,152.000000,,2013-04-02 22:54:00,
2013-04-02 19:03:00,54.0,36.0,-100.00,SSE,149,3.0,10.0,51,0.00,,,0.00,152.000000,,2013-04-02 23:03:00,
2013-04-02 19:13:00,54.0,36.0,-100.00,SSE,149,3.0,10.0,51,0.00,,,0.00,152.000000,,2013-04-02 23:13:00,
2013-04-02 19:24:00,54.0,36.0,-100.00,SSE,149,3.0,10.0,51,0.00,,,0.00,152.000000,,2013-04-02 23:24:00,
2013-04-02 19:25:00,51.0,35.0,-100.00,South,186,3.0,7.0,54,0.00,,,0.00,26.000000,,2013-04-02 23:25:00,
2013-04-02 19:55:00,51.0,35.0,-100.00,South,186,3.0,7.0,54,0.00,,,0.00,26.000000,,2013-04-02 23:55:00,
2013-04-02 20:05:00,51.0,35.0,-100.00,South,186,3.0,7.0,54,0.00,,,0.00,26.000000,,2013-04-03 00:05:00,
2013-04-02 20:13:00,51.0,35.0,-100.00,South,186,3.0,7.0,54,0.00,,,0.00,26.000000,,2013-04-03 00:13:00,
2013-04-02 20:57:00,51.0,36.0,-100.00,SSW,199,3.0,7.0,56,0.00,,,0.00,1.000000,,2013-04-03 00:57:00,
2013-04-02 21:04:00,51.0,36.0,-100.00,SSW,199,3.0,7.0,56,0.00,,,0.00,1.000000,,2013-04-03 01:04:00,
2013-04-02 21:13:00,51.0,36.0,-100.00,SSW,199,3.0,7.0,56,0.00,,,0.00,1.000000,,2013-04-03 01:13:00,
2013-04-02 21:23:00,51.0,36.0,-100.00,SSW,199,3.0,7.0,56,0.00,,,0.00,1.000000,,2013-04-03 01:23:00,
2013-04-02 21:54:00,52.0,37.0,-100.00,South,190,4.0,9.0,57,0.00,,,0.00,0.000000,,2013-04-03 01:54:00,
2013-04-02 22:13:00,52.0,37.0,-100.00,South,190,4.0,9.0,57,0.00,,,0.00,0.000000,,2013-04-03 02:13:00,
2013-04-02 22:24:00,52.0,37.0,-100.00,South,190,4.0,9.0,57,0.00,,,0.00,0.000000,,2013-04-03 02:24:00,
2013-04-02 22:53:00,52.0,37.0,-100.00,SSW,204,3.0,9.0,57,0.00,,,0.00,0.000000,,2013-04-03 02:53:00,
2013-04-02 23:06:00,52.0,37.0,-100.00,SSW,204,3.0,9.0,57,0.00,,,0.00,0.000000,,2013-04-03 03:06:00,
2013-04-02 23:14:00,52.0,37.0,-100.00,SSW,204,3.0,9.0,57,0.00,,,0.00,0.000000,,2013-04-03 03:14:00,
2013-04-02 23:23:00,52.0,37.0,-100.00,SSW,204,3.0,9.0,57,0.00,,,0.00,0.000000,,2013-04-03 03:23:00,
2013-04-02 23:54:00,47.0,36.0,-100.00,SW,228,2.0,8.0,65,0.00,,,0.00,0.000000,,2013-04-03 03:54:00,